STARLINK-5102 (55645 NORAD) Tracking and Keplerian Element Data

This shows tracking and keplerian element data for the satellite.

Feedback or suggestion? Click here.




ElementValue
Catalog55645
NameSTARLINK-5102
Epoch Orbit130
Epoch Day62.91667824
Epoch Year2023
RAAN110.1919
Inclination70
Eccentricity0.0003494
Argument of Perigee268.8973
Mean Anonmoly333.5653
Mean Motion15.75098785
Decay Rate-0.0097298
L11 55645U 23021T 23062.91667824 -.00972980 00000+0 -72778-2 0 9998
L22 55645 70.0000 110.1919 0003494 268.8973 333.5653 15.75098785 1306



Live tracking and technical data element details for STARLINK-5102 (NORAD 55645). STARLINK-5102 can be tracked NOW for your location showing map with azimuth and elevation plus other details from your city location.







IsCatalogInMostPopularTable: catalog: 55645, numindb: 2
Update: records affected: 1



GetName: 55645 STARLINK-5102

Hit Count: updated at: Wed, 22 Mar 2023 16:27:05 GMT